Find SEO

NORAD ID: 100366 Int'l Des: 2026-188 Owner: UAESA/UAEU Country: UAE operational
又名: OBJECT A spacetrack, celestrak

当前视图

正在加载3D地球...

About SEO

SEO (NORAD 100366) is a satellite launched Aug 17, 2026 by UAESA/UAEU of UAE. with a mass of 500.00 kg.

即将过境

Passes for default location (London). Set your location on the main map for personalized predictions.

高度历史

Loading altitude history...

两行轨道根数

1 A0366U 26188A 26263.42277932 .00059489 00000-0 20369-2 0 9992
2 A0366 97.4674 332.5869 0021441 192.2847 167.7873 15.29787330 5240
Epoch: Sep 20, 2026 • Age: 10 hours

当前状态

高度 496.0 km
远地点 / 近地点 N/A
速度 7.62 km/s
星下点 64.49°N, 19.65°E
发射日期 Aug 17, 2026
运行时间 34 days
类型 other

技术详情

分类 Payload
质量 500.00 kg
跨度 4.00 m
形状 ? Box + 2 Pan
制造商 CAST
平台类型 CAST-2000
阶段状态 In Orbit
所有者/国家 UAESA/UAEU/UAE

Most Searched